N7QNM-13 Weather Reports


Display with metric or nautical units.
time (UTC)temp
F
wind
direction
speed
MPH
gust
MPH
rain 1hr
in
rain 24hr
in
rain mn
in
humidity
%
barometer
mb
20260905125110 55 266 2.0 3.0 0.00 0.05 0.05 86 1016.4
20260905124109 55 259 3.0 5.0 0.00 0.05 0.05 86 1016.4
20260905123108 55 0.0 0.0 0.00 0.05 0.05 86 1016.4
20260905122130 55 240 2.0 3.0 0.00 0.05 0.05 87 1016.5
20260905121108 55 241 0.0 2.0 0.00 0.05 0.05 87 1016.4
20260905120108 54 219 3.0 4.0 0.00 0.05 0.05 88 1016.4
20260905115109 54 251 3.0 5.0 0.00 0.05 0.05 88 1016.4
20260905114129 54 210 2.0 3.0 0.00 0.05 0.05 88 1016.4
20260905113131 54 0.0 0.0 0.00 0.05 0.05 88 1016.3
20260905112109 54 0.0 0.0 0.00 0.05 0.05 88 1016.2
20260905111109 54 0.0 0.0 0.00 0.05 0.05 88 1016.2
20260905110111 54 0.0 0.0 0.00 0.05 0.05 88 1016.2
20260905105111 54 0.0 0.0 0.00 0.05 0.05 87 1016.2
20260905104131 54 0.0 0.0 0.00 0.05 0.05 87 1016.2
20260905103110 54 0.0 2.0 0.00 0.05 0.05 87 1016.2
20260905102111 54 225 0.0 2.0 0.00 0.05 0.05 87 1016.1
20260905101130 54 248 1.0 2.0 0.01 0.05 0.05 87 1016.1
20260905100110 54 180 0.0 1.0 0.03 0.05 0.05 86 1016.2
20260905095110 54 0.0 0.0 0.05 0.05 0.05 86 1016.1
20260905094132 54 194 1.0 2.0 0.05 0.05 0.05 85 1016.1
20260905093110 54 0.0 0.0 0.05 0.05 0.05 85 1016.1
20260905092152 54 0.0 0.0 0.05 0.05 0.05 85 1016.1
20260905091110 54 68 0.0 1.0 0.04 0.04 0.04 84 1016.1
20260905090111 54 117 2.0 2.0 0.02 0.02 0.02 84 1016.0
20260905085153 54 0.0 0.0 0.00 0.00 0.00 84 1015.9
20260905084111 53 0.0 0.0 0.00 0.00 0.00 84 1015.9
20260905083111 53 262 1.0 2.0 0.00 0.00 0.00 84 1015.8
20260905082213 53 0.0 0.0 0.00 0.00 0.00 83 1015.7
20260905081113 53 0.0 0.0 0.00 0.00 0.00 83 1015.7
20260905080113 53 0.0 0.0 0.00 0.00 0.00 83 1015.7
20260905075113 52 186 0.0 1.0 0.00 0.00 0.00 83 1015.6
20260905074113 52 0.0 0.0 0.00 0.00 0.00 82 1015.4
20260905073112 52 204 1.0 2.0 0.00 0.00 0.00 82 1015.4
20260905072113 52 0.0 0.0 0.00 0.00 0.00 81 1015.4
20260905071112 52 0.0 0.0 0.00 0.00 0.00 80 1015.3
20260905070132 52 0.0 0.0 0.00 0.00 0.00 80 1015.3
20260905065112 52 0.0 0.0 0.00 0.00 0.00 79 1015.2
20260905064112 52 192 0.0 2.0 0.00 0.00 0.00 77 1015.1
20260905063112 53 29 1.0 2.0 0.00 0.00 0.00 76 1014.9
20260905062113 54 0.0 0.0 0.00 0.00 0.00 75 1014.9
20260905061113 54 0.0 0.0 0.00 0.00 0.00 74 1014.8
20260905060112 55 0.0 0.0 0.00 0.00 0.00 72 1014.8
20260905055113 56 7 0.0 2.0 0.00 0.00 0.00 71 1014.8
20260905054113 57 0.0 0.0 0.00 0.00 0.00 70 1014.8
20260905053113 57 0.0 0.0 0.00 0.00 0.00 70 1014.8
20260905052113 58 180 0.0 1.0 0.00 0.00 0.00 69 1014.8
20260905051113 58 308 2.0 3.0 0.00 0.00 0.00 69 1014.8
20260905050114 58 220 2.0 6.0 0.00 0.00 0.00 68 1014.8
20260905045113 58 196 1.0 2.0 0.00 0.00 0.00 67 1014.9
20260905044114 59 254 1.0 2.0 0.00 0.00 0.00 66 1014.9
20260905043114 59 198 1.0 3.0 0.00 0.00 0.00 64 1014.9
20260905042115 60 186 0.0 2.0 0.00 0.00 0.00 64 1014.9
20260905041114 60 256 3.0 6.0 0.00 0.00 0.00 63 1015.0
20260905040114 61 261 2.0 4.0 0.00 0.00 0.00 63 1014.9
20260905035114 61 265 3.0 4.0 0.00 0.00 0.00 62 1014.8
20260905034115 61 258 4.0 7.0 0.00 0.00 0.00 62 1014.8
20260905033136 61 258 4.0 7.0 0.00 0.00 0.00 61 1014.8
20260905032116 61 248 3.0 5.0 0.00 0.00 0.00 61 1014.8
20260905031116 61 244 3.0 5.0 0.00 0.00 0.00 60 1014.7
20260905030115 61 197 2.0 3.0 0.00 0.00 0.00 59 1014.6
20260905025115 62 234 3.0 4.0 0.00 0.00 0.00 57 1014.4
20260905024115 62 264 3.0 5.0 0.00 0.00 0.00 56 1014.3
20260905023116 62 254 4.0 6.0 0.00 0.00 0.00 55 1014.3
20260905022115 62 256 5.0 6.0 0.00 0.00 0.00 57 1014.2
20260905021135 63 254 3.0 5.0 0.00 0.00 0.00 58 1014.1
20260905020117 64 263 4.0 6.0 0.00 0.00 0.00 57 1014.0
20260905015116 65 270 5.0 9.0 0.00 0.00 0.00 57 1013.9
20260905014136 66 260 8.0 11.0 0.00 0.00 0.00 55 1013.7
20260905013116 69 269 8.0 15.0 0.00 0.00 0.00 51 1013.5
20260905012116 71 270 2.0 3.0 0.00 0.00 0.00 44 1013.2
20260905011118 72 87 1.0 2.0 0.00 0.00 0.00 42 1013.0
20260905010116 73 53 4.0 6.0 0.00 0.00 0.00 38 1012.9
20260905005018 74 354 4.0 6.0 0.00 0.00 0.00 39 1012.9
20260905004118 72 338 3.0 5.0 0.00 0.00 0.00 40 1012.8
20260905003116 72 19 4.0 7.0 0.00 0.00 0.00 41 1012.8
20260905002118 73 83 6.0 7.0 0.00 0.00 0.00 39 1012.7
20260905001117 72 76 5.0 7.0 0.00 0.00 0.00 39 1012.7
20260905000017 71 54 3.0 4.0 0.00 0.00 0.00 44 1012.7
20260904235017 72 10 3.0 5.0 0.00 0.00 0.00 41 1012.6
20260904234017 72 37 5.0 6.0 0.00 0.00 0.00 42 1012.6
20260904233119 74 9 5.0 7.0 0.00 0.00 0.00 40 1012.6
20260904232118 72 65 6.0 10.0 0.00 0.00 0.00 40 1012.6
20260904231139 71 35 3.0 4.0 0.00 0.00 0.00 42 1012.7
20260904230019 72 50 2.0 5.0 0.00 0.00 0.00 43 1012.7
20260904225018 72 59 4.0 7.0 0.00 0.00 0.00 42 1012.7
20260904224020 73 78 4.0 8.0 0.00 0.00 0.00 42 1012.7
20260904223018 74 41 5.0 7.0 0.00 0.00 0.00 41 1012.7
20260904222018 74 68 3.0 7.0 0.00 0.00 0.00 41 1012.8
20260904221019 73 47 6.0 10.0 0.00 0.00 0.00 42 1012.8
20260904220020 73 80 3.0 5.0 0.00 0.00 0.00 42 1012.8
20260904215019 73 10 7.0 12.0 0.00 0.00 0.00 42 1012.8
20260904214019 73 356 4.0 6.0 0.00 0.00 0.00 42 1012.8
20260904213020 73 41 5.0 8.0 0.00 0.00 0.00 43 1012.7
20260904212019 73 61 4.0 7.0 0.00 0.00 0.00 43 1012.7
20260904211019 73 40 5.0 8.0 0.00 0.00 0.00 42 1012.7
20260904210019 73 36 4.0 7.0 0.00 0.00 0.00 43 1012.7
20260904205101 72 28 6.0 11.0 0.00 0.00 0.00 44 1012.7
20260904204019 73 39 5.0 8.0 0.00 0.00 0.00 42 1012.8
20260904203020 71 37 5.0 8.0 0.00 0.00 0.00 45 1012.9
20260904202020 70 41 5.0 7.0 0.00 0.00 0.00 46 1013.0
20260904201020 69 50 4.0 6.0 0.00 0.00 0.00 48 1013.0
20260904200020 69 5 3.0 4.0 0.00 0.00 0.00 48 1013.0
20260904195020 70 43 4.0 8.0 0.00 0.00 0.00 47 1013.1
20260904194022 69 43 5.0 7.0 0.00 0.00 0.00 48 1013.1
20260904193020 70 56 3.0 8.0 0.00 0.00 0.00 48 1013.2
20260904192022 69 351 3.0 5.0 0.00 0.00 0.00 48 1013.3
20260904191020 69 59 2.0 3.0 0.00 0.00 0.00 48 1013.4
20260904190022 69 19 5.0 7.0 0.00 0.00 0.00 49 1013.5
20260904185021 69 11 2.0 3.0 0.00 0.00 0.00 47 1013.7
20260904184021 70 46 2.0 4.0 0.00 0.00 0.00 45 1013.6
20260904183021 71 41 3.0 6.0 0.00 0.00 0.00 44 1013.6
20260904182021 71 270 3.0 4.0 0.00 0.00 0.00 43 1013.5
20260904181023 70 274 2.0 3.0 0.00 0.00 0.00 43 1013.4
20260904180043 70 66 2.0 5.0 0.00 0.00 0.00 45 1013.4
20260904175022 69 300 4.0 6.0 0.00 0.00 0.00 47 1013.2
20260904174021 69 336 4.0 5.0 0.00 0.00 0.00 46 1013.2
20260904173022 69 284 3.0 5.0 0.00 0.00 0.00 47 1013.2
20260904172044 68 291 1.0 3.0 0.00 0.00 0.00 50 1013.2
20260904171023 66 307 3.0 4.0 0.00 0.00 0.00 54 1013.4
20260904170022 64 280 2.0 4.0 0.00 0.00 0.00 56 1013.3
20260904165024 63 270 3.0 4.0 0.00 0.00 0.00 58 1013.3
20260904164022 63 300 4.0 6.0 0.00 0.00 0.00 60 1013.4
20260904163023 62 279 3.0 5.0 0.00 0.00 0.00 62 1013.4
20260904162023 61 261 4.0 6.0 0.00 0.00 0.00 63 1013.4
20260904161022 60 257 3.0 5.0 0.00 0.00 0.00 66 1013.4
20260904160023 58 262 3.0 5.0 0.00 0.00 0.00 72 1013.4
20260904155024 55 296 2.0 3.0 0.00 0.00 0.00 78 1013.3
20260904154025 54 272 3.0 4.0 0.00 0.00 0.00 81 1013.4
20260904153023 53 296 2.0 3.0 0.00 0.00 0.00 84 1013.3
20260904152025 53 0.0 0.0 0.00 0.00 0.00 86 1013.2
20260904151025 53 319 1.0 2.0 0.00 0.00 0.00 88 1013.2
20260904150023 53 257 2.0 2.0 0.00 0.00 0.00 89 1013.1
20260904145023 52 276 1.0 2.0 0.00 0.00 0.00 90 1013.2
20260904144045 52 270 2.0 4.0 0.00 0.00 0.00 91 1013.1
20260904143024 51 263 2.0 5.0 0.00 0.00 0.00 92 1013.0
20260904142025 51 270 0.0 2.0 0.00 0.00 0.00 92 1012.8
20260904141024 50 266 2.0 3.0 0.00 0.00 0.00 92 1012.7
20260904140026 49 235 2.0 3.0 0.00 0.00 0.00 92 1012.4
20260904135024 48 0.0 0.0 0.00 0.00 0.00 91 1012.3
20260904134026 48 0.0 0.0 0.00 0.00 0.00 91 1012.1
20260904133024 48 0.0 0.0 0.00 0.00 0.00 91 1011.9
20260904132045 48 0.0 0.0 0.00 0.00 0.00 91 1011.9
20260904131026 48 0.0 0.0 0.00 0.00 0.00 91 1011.8
20260904130026 48 0.0 0.0 0.00 0.00 0.00 91 1011.7